This demonstration page uses our WeatherBlox Daily Observations layout. Learn more.

Left ArrowRight Arrow

44.8408, -93.29828

Hourly Observations for September 5, 2019

Temp ( °F °C ) Dew Point ( °F °C ) Humidity (%) Winds ( mph kmh ) Pressure ( in mb ) Visibility ( mi km ) Precip ( " mm )
12:53 am 00:53 Clear 59 15 53 11.7 81 81 SSE 6 9 30.10 1019 10 16 0.00 0.00
1:53 am 01:53 Clear 59 15 52 11.1 78 78 SE 6 9 30.10 1019 10 16 0.00 0.00
2:53 am 02:53 Clear 58 14.4 53 11.7 84 84 SE 6 9 30.10 1019 10 16 0.00 0.00
3:53 am 03:53 Clear 57 13.9 52 11.1 83 83 SE 6 9 30.09 1019 10 16 0.00 0.00
4:53 am 04:53 Clear 56 13.3 52 11.1 87 87 SSE 7 11 30.06 1018 10 16 0.00 0.00
5:53 am 05:53 Mostly Clear 58 14.4 52 11.1 81 81 SSE 7 11 30.05 1018 10 16 0.00 0.00
6:53 am 06:53 Partly Cloudy 57 13.9 52 11.1 83 83 SE 7 11 30.06 1018 10 16 0.00 0.00
7:53 am 07:53 Partly Cloudy 60 15.6 53 11.7 78 78 S 8 13 30.02 1017 10 16 0.00 0.00
8:53 am 08:53 Mostly Cloudy 65 18.3 55 12.8 70 70 S 10 17 30.02 1017 10 16 0.00 0.00
9:53 am 09:53 Cloudy 64 17.8 55 12.8 73 73 ESE 9 15 30.05 1018 10 16 0.00 0.00
10:53 am 10:53 Cloudy 66 18.9 57 13.9 73 73 SE 14 22 30.03 1017 10 16 0.00 0.00
11:53 am 11:53 Mostly Cloudy 68 20 58 14.4 70 70 SE 15 24 30.00 1016 10 16 0.00 0.00
12:53 pm 12:53 Mostly Sunny 72 22.2 58 14.4 61 61 SSE 16 26 29.96 1015 10 16 0.00 0.00
1:53 pm 13:53 Mostly Cloudy 74 23.3 58 14.4 57 57 S 15 24 29.94 1014 10 16 0.00 0.00
2:53 pm 14:53 Cloudy 76 24.4 60 15.6 58 58 S 15 24 29.92 1013 10 16 0.00 0.00
3:53 pm 15:53 Cloudy 78 25.6 62 16.7 58 58 S 9 15 29.89 1012 10 16 0.00 0.00
4:53 pm 16:53 Cloudy 78 25.6 64 17.8 62 62 SW 10 17 29.89 1012 10 16 0.00 0.00
5:53 pm 17:53 Mostly Cloudy 79 26.1 65 18.3 62 62 SW 8 13 29.89 1012 10 16 0.00 0.00
6:53 pm 18:53 Partly Cloudy 79 26.1 66 18.9 65 65 SW 7 11 29.88 1012 10 16 0.00 0.00
7:53 pm 19:53 Clear 77 25 67 19.4 71 71 SSW 3 6 29.88 1012 10 16 0.00 0.00
8:53 pm 20:53 Partly Cloudy 77 25 67 19.4 71 71 SSW 8 13 29.87 1012 10 16 0.00 0.00
9:21 pm 21:21 Mostly Clear 75 23.9 67 19.4 76 76 WNW 14 22 29.86 1011 10 16 0.00 0.00
9:53 pm 21:53 Mostly Clear 73 22.8 61 16.1 66 66 NW 17 28 29.90 1013 10 16 0.00 0.00
10:53 pm 22:53 Partly Cloudy 69 20.6 59 15 70 70 NW 15 24 29.92 1013 10 16 0.00 0.00
11:21 pm 23:21 Mostly Cloudy 69 20.6 59 15 70 70 NW 15 24 29.91 1013 10 16 0.00 0.00
11:53 pm 23:53 Cloudy 69 20.6 60 15.6 73 73 NW 20 31 29.93 1014 10 16 0.00 0.00

Powered by AerisWeather